owner,sensor,date,latitude,longitude,vertical_datum,direction_of_sea_water_velocity,sea_water_speed,upward_sea_water_velocity,qcFlag 
COMPS,ioos:station:USF.COMPS:C12:1,2013-03-28T13:00:00Z,27.4980,-83.7220,4.0,80.7273982228,9.9297532698451,-99999.0,'1111122,1111122,1199999999' 
COMPS,ioos:station:USF.COMPS:C12:1,2013-03-28T14:00:00Z,27.4980,-83.7220,4.0,80.7273982228,9.9297532698451,-99999.0,'1111122,1111122,1199999999' 
COMPS,ioos:station:USF.COMPS:C12:1,2013-03-28T15:00:00Z,27.4980,-83.7220,4.0,80.7273982228,9.9297532698451,-99999.0,'1111122,1111122,1199999999' 
COMPS,ioos:station:USF.COMPS:C12:1,2013-03-28T16:00:00Z,27.4980,-83.7220,4.0,45.0,0.42426406871193,-99999.0,'1111122,1111122,1199999999' 
COMPS,ioos:station:USF.COMPS:C12:1,2013-03-28T17:00:00Z,27.4980,-83.7220,4.0,80.7273982228,9.9297532698451,-99999.0,'1111122,1111122,1199999999' 
COMPS,ioos:station:USF.COMPS:C12:1,2013-03-28T18:00:00Z,27.4980,-83.7220,4.0,188.68635458124,14.567086187704,-99999.0,'1111122,1111122,1199999999' 
COMPS,ioos:station:USF.COMPS:C12:1,2013-03-28T19:00:00Z,27.4980,-83.7220,4.0,200.90798047101,19.054658223122,-99999.0,'1111122,1111122,1199999999' 
COMPS,ioos:station:USF.COMPS:C12:1,2013-03-28T20:00:00Z,27.4980,-83.7220,4.0,200.52246035853,19.967223141939,-99999.0,'1111122,1111122,1199999999' 
COMPS,ioos:station:USF.COMPS:C12:1,2013-03-28T21:00:00Z,27.4980,-83.7220,4.0,206.0345498604,24.150569351467,-99999.0,'1111122,1111122,1199999999' 
COMPS,ioos:station:USF.COMPS:C12:1,2013-03-28T23:00:00Z,27.4980,-83.7220,4.0,203.65597126763,24.67326488327,-99999.0,'1111122,1111122,1199999999' 
COMPS,ioos:station:USF.COMPS:C12:1,2013-03-29T00:00:00Z,27.4980,-83.7220,4.0,184.03180109807,22.756317804074,-99999.0,'1111122,1111122,1199999999' 
COMPS,ioos:station:USF.COMPS:C12:1,2013-03-29T03:00:00Z,27.4980,-83.7220,4.0,144.39244934082,19.064626930522,-99999.0,'1111122,1111122,1199999999' 
COMPS,ioos:station:USF.COMPS:C12:1,2013-03-29T06:00:00Z,27.4980,-83.7220,4.0,174.2577167222,17.990275150759,-99999.0,'1111122,1111122,1199999999' 
COMPS,ioos:station:USF.COMPS:C12:1,2013-03-29T07:00:00Z,27.4980,-83.7220,4.0,176.44214813388,19.337269714207,-99999.0,'1111122,1111122,1199999999' 
COMPS,ioos:station:USF.COMPS:C12:1,2013-03-29T08:00:00Z,27.4980,-83.7220,4.0,191.04890567165,17.219175357723,-99999.0,'1111122,1111122,1199999999' 
COMPS,ioos:station:USF.COMPS:C12:1,2013-03-29T09:00:00Z,27.4980,-83.7220,4.0,210.01836742761,15.591343752224,-99999.0,'1111122,1111122,1199999999' 
COMPS,ioos:station:USF.COMPS:C12:1,2013-03-29T10:00:00Z,27.4980,-83.7220,4.0,184.34323995169,15.845504094222,-99999.0,'1111122,1111122,1199999999' 
COMPS,ioos:station:USF.COMPS:C12:1,2013-03-29T11:00:00Z,27.4980,-83.7220,4.0,179.06844340192,12.301625908798,-99999.0,'1111122,1111122,1199999999' 
COMPS,ioos:station:USF.COMPS:C12:1,2013-03-29T12:00:00Z,27.4980,-83.7220,4.0,146.010479907,15.920113064925,-99999.0,'1111122,1111122,1199999999' 
COMPS,ioos:station:USF.COMPS:C12:1,2013-03-29T13:00:00Z,27.4980,-83.7220,4.0,117.73154612508,19.770938268074,-99999.0,'1111122,1111122,1199999999' 
COMPS,ioos:station:USF.COMPS:C12:1,2013-03-29T14:00:00Z,27.4980,-83.7220,4.0,125.33493348776,16.425894191794,-99999.0,'1111122,1111122,1199999999' 
COMPS,ioos:station:USF.COMPS:C12:1,2013-03-29T15:00:00Z,27.4980,-83.7220,4.0,110.44450263594,18.036074961033,-99999.0,'1111122,1111122,1199999999' 
COMPS,ioos:station:USF.COMPS:C12:1,2013-03-29T16:00:00Z,27.4980,-83.7220,4.0,119.16761337958,14.773286702694,-99999.0,'1111122,1111122,1199999999' 
COMPS,ioos:station:USF.COMPS:C12:1,2013-03-29T17:00:00Z,27.4980,-83.7220,4.0,123.85101030356,9.8737024463977,-99999.0,'1111122,1111122,1199999999' 
COMPS,ioos:station:USF.COMPS:C12:1,2013-03-29T18:00:00Z,27.4980,-83.7220,4.0,158.19859051365,7.0007142492749,-99999.0,'1111122,1111122,1199999999' 
COMPS,ioos:station:USF.COMPS:C12:1,2013-03-29T19:00:00Z,27.4980,-83.7220,4.0,244.50244850666,7.2013887549555,-99999.0,'1111122,1111122,1199999999' 
COMPS,ioos:station:USF.COMPS:C12:1,2013-03-29T21:00:00Z,27.4980,-83.7220,4.0,229.33231398319,9.3605555390692,-99999.0,'1111122,1111122,1199999999' 
COMPS,ioos:station:USF.COMPS:C12:1,2013-03-29T22:00:00Z,27.4980,-83.7220,4.0,227.96093613416,8.2134036793524,-99999.0,'1111122,1111122,1199999999' 
COMPS,ioos:station:USF.COMPS:C12:1,2013-03-29T23:00:00Z,27.4980,-83.7220,4.0,32.735226272108,1.6643316977093,-99999.0,'1111122,1111122,1199999999' 
COMPS,ioos:station:USF.COMPS:C12:1,2013-03-30T04:00:00Z,27.4980,-83.7220,4.0,97.043320901158,26.096934685897,-99999.0,'1111122,1111122,1199999999' 
COMPS,ioos:station:USF.COMPS:C12:1,2013-03-30T07:00:00Z,27.4980,-83.7220,4.0,130.46222749209,17.875122377203,-99999.0,'1111122,1111122,1199999999' 
COMPS,ioos:station:USF.COMPS:C12:1,2013-03-30T08:00:00Z,27.4980,-83.7220,4.0,151.47688139369,15.70636813525,-99999.0,'1111122,1111122,1199999999' 
COMPS,ioos:station:USF.COMPS:C12:1,2013-03-30T09:00:00Z,27.4980,-83.7220,4.0,180.65106038023,17.601136326953,-99999.0,'1111122,1111122,1199999999' 
COMPS,ioos:station:USF.COMPS:C12:1,2013-03-30T10:00:00Z,27.4980,-83.7220,4.0,187.76516601843,15.542522317822,-99999.0,'1111122,1111122,1199999999' 
COMPS,ioos:station:USF.COMPS:C12:1,2013-03-30T11:00:00Z,27.4980,-83.7220,4.0,184.30866491652,14.641379716407,-99999.0,'1111122,1111122,1199999999' 
COMPS,ioos:station:USF.COMPS:C12:1,2013-03-30T12:00:00Z,27.4980,-83.7220,4.0,162.5651253052,12.682665335015,-99999.0,'1111122,1111122,1199999999' 
COMPS,ioos:station:USF.COMPS:C12:1,2013-03-30T13:00:00Z,27.4980,-83.7220,4.0,148.9617366445,13.188252348207,-99999.0,'1111122,1111122,1199999999' 
COMPS,ioos:station:USF.COMPS:C12:1,2013-03-30T14:00:00Z,27.4980,-83.7220,4.0,136.909152433,16.979988221433,-99999.0,'1111122,1111122,1199999999' 
COMPS,ioos:station:USF.COMPS:C12:1,2013-03-30T15:00:00Z,27.4980,-83.7220,4.0,121.57816493211,12.79453008125,-99999.0,'1111122,1111122,1199999999' 
COMPS,ioos:station:USF.COMPS:C12:1,2013-03-30T16:00:00Z,27.4980,-83.7220,4.0,85.643024994154,10.5304320899,-99999.0,'1111122,1111122,1199999999' 
COMPS,ioos:station:USF.COMPS:C12:1,2013-03-30T17:00:00Z,27.4980,-83.7220,4.0,132.90474743538,11.604309544303,-99999.0,'1111122,1111122,1199999999' 
COMPS,ioos:station:USF.COMPS:C12:1,2013-03-30T18:00:00Z,27.4980,-83.7220,4.0,135.93919094574,12.941792766074,-99999.0,'1111122,1111122,1199999999' 
COMPS,ioos:station:USF.COMPS:C12:1,2013-03-30T19:00:00Z,27.4980,-83.7220,4.0,148.33924890336,14.098226838862,-99999.0,'1111122,1111122,1199999999' 
COMPS,ioos:station:USF.COMPS:C12:1,2013-03-30T20:00:00Z,27.4980,-83.7220,4.0,155.7941149555,11.950732195142,-99999.0,'1111122,1111122,1199999999' 
COMPS,ioos:station:USF.COMPS:C12:1,2013-03-30T21:00:00Z,27.4980,-83.7220,4.0,167.141909827,9.4366307546709,-99999.0,'1111122,1111122,1199999999' 
COMPS,ioos:station:USF.COMPS:C12:1,2013-03-30T22:00:00Z,27.4980,-83.7220,4.0,153.82471001824,6.5741919655574,-99999.0,'1111122,1111122,1199999999' 
COMPS,ioos:station:USF.COMPS:C12:1,2013-03-30T23:00:00Z,27.4980,-83.7220,4.0,124.50852298767,9.7082439194738,-99999.0,'1111122,1111122,1199999999' 
COMPS,ioos:station:USF.COMPS:C12:1,2013-03-31T00:00:00Z,27.4980,-83.7220,4.0,79.303489264222,9.1591484320323,-99999.0,'1111122,1111122,1199999999' 
COMPS,ioos:station:USF.COMPS:C12:1,2013-03-31T01:00:00Z,27.4980,-83.7220,4.0,68.120848662425,13.685759021698,-99999.0,'1111122,1111122,1199999999' 
COMPS,ioos:station:USF.COMPS:C12:1,2013-03-31T02:00:00Z,27.4980,-83.7220,4.0,75.213497541656,20.374739262135,-99999.0,'1111122,1111122,1199999999' 
COMPS,ioos:station:USF.COMPS:C12:1,2013-03-31T03:00:00Z,27.4980,-83.7220,4.0,85.305085720749,20.769689453624,-99999.0,'1111122,1111122,1199999999' 
COMPS,ioos:station:USF.COMPS:C12:1,2013-03-31T04:00:00Z,27.4980,-83.7220,4.0,92.737156305061,25.128668886354,-99999.0,'1111122,1111122,1199999999' 
COMPS,ioos:station:USF.COMPS:C12:1,2013-03-31T05:00:00Z,27.4980,-83.7220,4.0,99.31932139136,19.76081982105,-99999.0,'1111122,1111122,1199999999' 
COMPS,ioos:station:USF.COMPS:C12:1,2013-03-31T06:00:00Z,27.4980,-83.7220,4.0,103.6122866637,22.944498251215,-99999.0,'1111122,1111122,1199999999' 
COMPS,ioos:station:USF.COMPS:C12:1,2013-03-31T07:00:00Z,27.4980,-83.7220,4.0,103.1340223064,21.564090521049,-99999.0,'1111122,1111122,1199999999' 
COMPS,ioos:station:USF.COMPS:C12:1,2013-03-31T08:00:00Z,27.4980,-83.7220,4.0,115.65152846505,19.635172522797,-99999.0,'1111122,1111122,1199999999' 
COMPS,ioos:station:USF.COMPS:C12:1,2013-03-31T09:00:00Z,27.4980,-83.7220,4.0,131.89833597013,14.375326083258,-99999.0,'1111122,1111122,1199999999' 
COMPS,ioos:station:USF.COMPS:C12:1,2013-03-31T10:00:00Z,27.4980,-83.7220,4.0,139.91379876237,15.684705926475,-99999.0,'1111122,1111122,1199999999' 
COMPS,ioos:station:USF.COMPS:C12:1,2013-03-31T11:00:00Z,27.4980,-83.7220,4.0,156.44773632711,12.76322843171,-99999.0,'1111122,1111122,1199999999' 
COMPS,ioos:station:USF.COMPS:C12:1,2013-03-31T12:00:00Z,27.4980,-83.7220,4.0,151.64503821468,14.317821063276,-99999.0,'1111122,1111122,1199999999' 
COMPS,ioos:station:USF.COMPS:C12:1,2013-03-31T13:00:00Z,27.4980,-83.7220,4.0,137.83878784101,17.13300907605,-99999.0,'1111122,1111122,1199999999' 
COMPS,ioos:station:USF.COMPS:C12:1,2013-03-31T14:00:00Z,27.4980,-83.7220,4.0,99.462322208026,7.9075912893877,-99999.0,'1111122,1111122,1199999999' 
COMPS,ioos:station:USF.COMPS:C12:1,2013-03-31T15:00:00Z,27.4980,-83.7220,4.0,74.283024601265,20.672929158685,-99999.0,'1111122,1111122,1199999999' 
COMPS,ioos:station:USF.COMPS:C12:1,2013-03-31T16:00:00Z,27.4980,-83.7220,4.0,23.594820569881,9.493682109698,-99999.0,'1111122,1111122,1199999999' 
COMPS,ioos:station:USF.COMPS:C12:1,2013-03-31T17:00:00Z,27.4980,-83.7220,4.0,56.415839524407,15.004665940966,-99999.0,'1111122,1111122,1199999999' 
COMPS,ioos:station:USF.COMPS:C12:1,2013-03-31T18:00:00Z,27.4980,-83.7220,4.0,37.405356631409,12.84056073542,-99999.0,'1111122,1111122,1199999999' 
COMPS,ioos:station:USF.COMPS:C12:1,2013-03-31T19:00:00Z,27.4980,-83.7220,4.0,45.954841253872,8.4864598037108,-99999.0,'1111122,1111122,1199999999' 
COMPS,ioos:station:USF.COMPS:C12:1,2013-03-31T20:00:00Z,27.4980,-83.7220,4.0,63.7117378751,9.2574294488265,-99999.0,'1111122,1111122,1199999999' 
COMPS,ioos:station:USF.COMPS:C12:1,2013-03-31T21:00:00Z,27.4980,-83.7220,4.0,49.635463426903,5.2497618993627,-99999.0,'1111122,1111122,1199999999' 
COMPS,ioos:station:USF.COMPS:C12:1,2013-03-31T22:00:00Z,27.4980,-83.7220,4.0,87.739498088859,7.6059187479226,-99999.0,'1111122,1111122,1199999999' 
COMPS,ioos:station:USF.COMPS:C12:1,2013-03-31T23:00:00Z,27.4980,-83.7220,4.0,55.954062643398,4.4654227123532,-99999.0,'1111122,1111122,1199999999' 
 
DISCLAIMER: The Gulf of Mexico Coastal and Ocean Observing (GCOOS) Data Portal aggregates data from the regional data providers for the convenience of all data users. Data published on this website should not be used for navigation or certain other uses as we cannot guarantee data accuracy or availability. The data and delivery services are provided 'as is' without warranty of any kind. Data Source: Gulf of Mexico Coastal Ocean Observing System Data Portal (http://data.gcoos.org/) 
